Regional Weather Roundup
Issued by NWS Charleston, SC

Current Version | Previous Version | Text Only | Print | Product List | Glossary On
Versions: 1 2 3 4 5 6 7 8 9 10 11 12 13 14 15 16 17 18 19 20 21 22 23 24 25 26 27 28 29 30 31 32 33 34 35 36 37 38 39 40 41 42 43 44 45 46 47 48 49 50
000 ASUS42 KCHS 260725 RWRCHS REGIONAL WEATHER ROUNDUP NATIONAL WEATHER SERVICE CHARLESTON SC 300 AM EDT SAT JUL 26 2014 NOTE: "FAIR" INDICATES FEW OR NO CLOUDS BELOW 12,000 FEET WITH NO SIGNIFICANT WEATHER AND/OR OBSTRUCTIONS TO VISIBILITY. NOT ALL STATIONS ARE QUALITY CONTROLLED BY THE NATIONAL WEATHER SERVICE. USE DATA WITH CAUTION...ESPECIALLY DEWPOINT OBSERVATIONS. SCZ027-030-031-034>040-042>050-260800- ...SOUTH CAROLINA... CITY SKY/WX TMP DP RH WIND PRES REMARKS N CHARLESTON PTCLDY 75 71 87 CALM 29.98F WATERFRONT PRK N/A 77 N/A N/A CALM N/A FORT JOHNSON NOT AVBL MOUNT PLEASANT LGT RAIN 72 72 100 CALM 29.99S JOHNS ISLAND MOSUNNY 73 68 83 CALM 29.98F PINOPOLIS N/A 75 72 88 MISG 29.91F MONCKS CORNER N/A 72 72 100 CALM 29.99F FOG SUMMERVILLE FAIR 72 72 100 CALM 30.00S BEAUFORT MCAS CLOUDY 74 72 93 W3 29.98F BEAUFORT ARPT NOT AVBL HILTON HEAD IS CLOUDY 73 73 100 CALM 30.00S FOG GEORGETOWN NOT AVBL WALTERBORO MOSUNNY 72 N/A N/A CALM 29.99F ORANGEBURG PTCLDY 73 71 93 CALM 29.99F BARNWELL FAIR 73 72 94 CALM 29.99F AIKEN FAIR 72 72 100 W3 30.03F MANNING FAIR 72 N/A N/A CALM 29.99F KINGSTREE NOT AVBL COLUMBIA PTCLDY 75 70 84 SW3 29.99F SUMTER CLOUDY 73 73 100 S2 29.98S FLORENCE CLEAR 73 70 90 CALM 29.99F MYRTLE BEACH PTCLDY 73 70 88 CALM 30.00S N MYRTLE BEACH PTCLDY 75 72 90 CALM 29.99F $$ GAZ063-065-086>088-099>101-113>116-118-119-134-136>141-150-260800- ...GEORGIA... CITY SKY/WX TMP DP RH WIND PRES REMARKS SAVANNAH ARPT CLOUDY 78 72 81 S6 29.99F HUNTER AAF CLOUDY 75 74 95 CALM 29.97F FORT STEWART CLOUDY 78 73 84 SW7 29.98F STATESBORO NOT AVBL SYLVANIA MOSUNNY 74 74 100 CALM 30.00F CLAXTON FAIR 77 77 100 CALM 29.99F THOMSON CLEAR 74 74 100 CALM 30.04F AUGUSTA-BUSH FOG 72 71 97 CALM 29.98F VSB 1/2 AUGUSTA-DANIEL CLEAR 74 72 93 NW3 30.01F SWAINSBORO FAIR 77 77 100 CALM 30.00F VIDALIA N/A 77 73 88 SW3 30.00F ALMA MOCLDY 75 73 93 S3 30.01F WAYCROSS MOCLDY 80 77 92 SW5 30.01F JESUP NOT AVBL BRUNSWICK MOCLDY 79 72 78 SW6 30.01F SAINT SIMONS MOCLDY 79 74 84 SW13 30.01F $$ SCZ027-028-034-036>038-045-046-048>050-GAZ119-141-260800- ...LAKE AND SUPPLEMENTAL COASTAL OBSERVATIONS... STATION/POSITION TIME TEMP WIND PRES WAVE SWELL AIR SEA DIR/SP/G HT/PER HT/PER/DIR (UTC) (F) (DEG/KT/KT) (MB) (FT/S) (FT/S/D) UPR LAKE MARION NOT AVBL WINYAH BAY 0700 74 340/ 1 1015.0S LAKE MURRAY 0700 76 290/ 4/ 6 1015.2S ACE BASIN NERRS 0700 72 CALM 1015.0S FORT PULASKI 0700 77 220/ 3/ 4 1015.4F SAPELO ISLAND 0700 80 220/ 12 1016.0S $$ ANZ835-935-AMZ111-154-330-350-352-354-374-450-454-472-260800- ...C-MAN AND BUOY OBSERVATIONS... STATION/POSITION TIME TEMP WIND PRES WAVE SWELL AIR SEA DIR/SP/G HT/PER HT/PER/DIR (UTC) (F) (DEG/KT/KT) (MB) (FT/S) (FT/S/D) FOLLY BEACH CMAN 0700 75 320/ 2/ 2 1015.7F BUOY 41004 0700 80 83 190/ 10/ 12 1014.6F 3/ 5 3/ 5 BUOY 41008 0700 83 85 230/ 16/ 16 1015.5F 3/ 5 5E ST. MARYS GA 0700 84 N/A 2/ 4 FRYING PAN BUOY NOT AVBL BUOY 41025 0700 VRB 12/ 16 1015.2F 3/ 6 2/160/ 6 CAPE LOOKOUT NC 0700 79 80/ 10/ 10 1015.5F BUOY 41002 0626 81 82 250/ 12/ 14 1018.2F 4/ 7 3/240/ 7 BUOY 41010 0700 83 84 220/ 10/ 12 1018.8F 2/ 8 2/130/ 8 BUOY 41012 NOT AVBL ST AUGUSTINE FL 0700 76 230/ 6/ 7 1017.5F CAPERS NEARSHORE 0600 79 250/ 6/ 8 N/A FRIPP NEARSHORE NOT AVBL $$

USA.gov is the U.S. government's official web portal to all federal, state and local government web resources and services.